Location: Les Chemineaux
(47.3024°N, 1.5104°E)
Time: 01:10:18
(UTC+00:00)

Spot 2 Rocket - Pass Details

Date: 19 May 2025
Orbit: 753 x 766 km, 98.3° (Epoch: 18 June)

Event Time Altitude Azimuth Distance (km) Brightness Sun altitude
Exits shadow 20:17:43 - 139° (SE) 2,364 5.4 -7.5°
Reaches altitude 10° 20:17:57 10° 138° (SE) 2,275 5.3 -7.6°
Maximum altitude 20:22:40 43° 68° (ENE) 1,058 4.1 -8.2°
Drops below altitude 10° 20:27:25 10° 358° (N) 2,296 6.7 -8.8°
Sets 20:29:49 0° 352° (N) 3,227 7.6 -9.1°
